sat.trackr.live / text

‹ back to catalog

ONEWEB-0327

NORAD 49196 · 2021-083L

PAYLOAD ACTIVE UNKNOWN

§ Identity

Operator
Country
UK
Launch date
2021-09-14
Launch site
TYMSC
Launch vehicle
Mass (kg)
RCS (m²)

Purposes: comms

External: N2YO · Heavens-Above · Gunter

§ Orbital elements

Epoch: 2026-05-25T02:05:30.293952Z

Period
109.20 min
Inclination
87.9161°
Eccentricity
0.0002221
Mean motion
13.18685789 rev/d
Perigee alt
1,188.1 km
Apogee alt
1,191.4 km
Semi-major
7,567.9 km
B*
-3.0235e-5
RAAN
340.0588°
Arg perigee
85.6212°
Mean anomaly
274.5174°
Rev number
22,697

§ Raw data

ONEWEB-03271 49196U 21083L   26145.08715618  .00000001  00000+0 -30235-4 0  99952 49196  87.9161 340.0588 0002221  85.6212 274.5174 13.18685789226974

JSON: /api/v1/satellites/49196 · /tle

For live sub-satellite position, see the globe view (requires WebGL).

§ Visibility from observer

Set your observer location to see the next 7 days of passes ≥ 10°. The values pass through the URL so the page stays shareable.

No JS? Fill the form by hand. The geolocation button needs JavaScript.